When you browse on this site, cookies collect data to enhance your experience and personalize the content and advertising you see.
Visit our Privacy Policy to learn more. By continuing to use the site, you agree to this use of cookies and data.
  • In Hungary
  • List of Countries
  • For 7 days
  • Water Temperature
  • Weather Map
  • News
  • Weather Widgets
  • user-avatar
    Login

    Hourly Weather Lashutino

    Today, 22 February, Saturday

    Time Temperature Precipitation Wind Pressure Humidity
    00:00 -1°C° 0 mm 4 mps 750 mmHg 84%
    01:00 -1°C° 0 mm 4 mps 750 mmHg 89%
    02:00 -1°C° 0 mm 4 mps 751 mmHg 94%
    03:00 -1°C° 0 mm 4 mps 750 mmHg 93%
    04:00 -1°C° 0 mm 4 mps 750 mmHg 93%
    05:00 -1°C° 0 mm 4 mps 750 mmHg 92%
    06:00 -1°C° 0 mm 4 mps 750 mmHg 91%
    07:00 -1°C° 0 mm 5 mps 750 mmHg 90%
    08:00 -1°C° 0 mm 5 mps 750 mmHg 89%
    09:00 0°C° 0 mm 5 mps 750 mmHg 87%
    10:00 0°C° 0 mm 5 mps 749 mmHg 84%
    11:00 0°C° 0 mm 5 mps 749 mmHg 81%
    12:00 +1°C° 0 mm 6 mps 748 mmHg 79%
    13:00 +1°C° 0 mm 6 mps 747 mmHg 77%
    14:00 +2°C° 0 mm 6 mps 747 mmHg 75%
    15:00 0°C° 0.1 mm 7 mps 745 mmHg 77%
    16:00 0°C° 0.1 mm 7 mps 744 mmHg 78%
    17:00 0°C° 0.1 mm 8 mps 743 mmHg 80%
    18:00 0°C° 0.8 mm 8 mps 741 mmHg 84%
    19:00 0°C° 0.8 mm 9 mps 740 mmHg 88%
    20:00 -1°C° 0.8 mm 9 mps 738 mmHg 92%
    21:00 0°C° 0.7 mm 9 mps 737 mmHg 92%
    22:00 0°C° 0.7 mm 9 mps 736 mmHg 91%
    23:00 0°C° 0.7 mm 9 mps 734 mmHg 90%

    Tomorrow, 23 February, Sunday

    Time Temperature Precipitation Wind Pressure Humidity
    00:00 0°C° 0.4 mm 8 mps 734 mmHg 89%
    01:00 0°C° 0.4 mm 7 mps 733 mmHg 88%
    02:00 +2°C° 0.4 mm 7 mps 733 mmHg 86%
    03:00 +1°C° 0.4 mm 6 mps 733 mmHg 83%
    04:00 +1°C° 0.4 mm 6 mps 733 mmHg 79%
    05:00 +1°C° 0.4 mm 5 mps 733 mmHg 76%
    06:00 0°C° 0 mm 5 mps 733 mmHg 76%
    07:00 0°C° 0 mm 5 mps 733 mmHg 77%
    08:00 -1°C° 0 mm 5 mps 734 mmHg 77%
    09:00 -1°C° 0 mm 6 mps 734 mmHg 76%
    10:00 -1°C° 0 mm 6 mps 734 mmHg 74%
    11:00 +1°C° 0 mm 6 mps 734 mmHg 72%
    12:00 -1°C° 0.1 mm 6 mps 734 mmHg 77%
    13:00 -1°C° 0.1 mm 6 mps 734 mmHg 82%
    14:00 -1°C° 0.1 mm 6 mps 734 mmHg 87%
    15:00 -1°C° 0.2 mm 6 mps 733 mmHg 87%
    16:00 -1°C° 0.2 mm 6 mps 733 mmHg 88%
    17:00 -1°C° 0.2 mm 6 mps 733 mmHg 88%
    18:00 -1°C° 0.3 mm 6 mps 733 mmHg 89%
    19:00 -1°C° 0.3 mm 6 mps 732 mmHg 90%
    20:00 -1°C° 0.3 mm 6 mps 732 mmHg 92%
    21:00 -1°C° 0.1 mm 6 mps 732 mmHg 91%
    22:00 0°C° 0.1 mm 5 mps 732 mmHg 91%
    23:00 -1°C° 0.1 mm 5 mps 731 mmHg 90%

    Day after tomorrow, 24 February, Monday

    Time Temperature Precipitation Wind Pressure Humidity
    00:00 -1°C° 0.3 mm 5 mps 731 mmHg 92%
    01:00 -1°C° 0.3 mm 5 mps 731 mmHg 94%
    02:00 -1°C° 0.3 mm 4 mps 731 mmHg 96%
    03:00 -1°C° 0.1 mm 4 mps 731 mmHg 96%
    04:00 -1°C° 0.1 mm 4 mps 731 mmHg 96%
    05:00 0°C° 0.1 mm 3 mps 731 mmHg 96%
    06:00 0°C° 0.2 mm 3 mps 732 mmHg 94%
    07:00 -1°C° 0.2 mm 4 mps 733 mmHg 92%
    08:00 0°C° 0.2 mm 4 mps 733 mmHg 90%
    09:00 0°C° 0 mm 4 mps 734 mmHg 82%
    10:00 0°C° 0 mm 5 mps 735 mmHg 74%
    11:00 -1°C° 0 mm 6 mps 736 mmHg 66%
    12:00 -1°C° 0 mm 6 mps 736 mmHg 64%
    13:00 -1°C° 0 mm 6 mps 737 mmHg 63%
    14:00 -1°C° 0 mm 6 mps 738 mmHg 61%
    15:00 -1°C° 0 mm 6 mps 738 mmHg 61%
    16:00 -1°C° 0 mm 5 mps 739 mmHg 61%
    17:00 -1°C° 0 mm 5 mps 739 mmHg 61%
    18:00 -1°C° 0 mm 5 mps 740 mmHg 63%
    19:00 -2°C° 0 mm 5 mps 740 mmHg 65%
    20:00 -2°C° 0 mm 5 mps 741 mmHg 67%
    21:00 -3°C° 0 mm 4 mps 741 mmHg 68%
    22:00 -3°C° 0 mm 4 mps 741 mmHg 70%
    23:00 -2°C° 0 mm 3 mps 742 mmHg 71%

    25 February, Tuesday

    Time Temperature Precipitation Wind Pressure Humidity
    00:00 -2°C° 0 mm 3 mps 742 mmHg 72%
    01:00 -2°C° 0 mm 3 mps 742 mmHg 74%
    02:00 -2°C° 0 mm 3 mps 742 mmHg 75%
    03:00 -3°C° 0 mm 2 mps 742 mmHg 78%
    04:00 -3°C° 0 mm 2 mps 741 mmHg 81%
    05:00 -3°C° 0 mm 2 mps 741 mmHg 84%
    06:00 -2°C° 0 mm 2 mps 741 mmHg 83%
    07:00 -2°C° 0 mm 2 mps 740 mmHg 82%
    08:00 -2°C° 0 mm 3 mps 740 mmHg 81%
    09:00 -1°C° 0 mm 3 mps 739 mmHg 80%
    10:00 -1°C° 0 mm 3 mps 739 mmHg 80%
    11:00 0°C° 0 mm 3 mps 738 mmHg 79%
    12:00 0°C° 0 mm 3 mps 738 mmHg 80%
    13:00 0°C° 0 mm 3 mps 737 mmHg 82%
    14:00 +1°C° 0 mm 3 mps 736 mmHg 83%
    15:00 -1°C° 0.2 mm 4 mps 735 mmHg 87%
    16:00 -1°C° 0.2 mm 4 mps 734 mmHg 92%
    17:00 -1°C° 0.2 mm 5 mps 733 mmHg 96%
    18:00 -1°C° 0.5 mm 4 mps 733 mmHg 96%
    19:00 -1°C° 0.5 mm 4 mps 732 mmHg 96%
    20:00 0°C° 0.5 mm 4 mps 732 mmHg 96%
    21:00 +1°C° 0.2 mm 3 mps 731 mmHg 95%
    22:00 +1°C° 0.2 mm 3 mps 731 mmHg 94%
    23:00 +1°C° 0.2 mm 3 mps 731 mmHg 93%

    26 February, Wednesday

    Time Temperature Precipitation Wind Pressure Humidity
    00:00 0°C° 0 mm 3 mps 730 mmHg 93%
    01:00 0°C° 0 mm 3 mps 730 mmHg 92%
    02:00 0°C° 0 mm 3 mps 730 mmHg 91%
    03:00 0°C° 0 mm 3 mps 730 mmHg 91%
    04:00 -1°C° 0 mm 3 mps 730 mmHg 92%
    05:00 -1°C° 0 mm 3 mps 730 mmHg 92%
    06:00 -1°C° 0.1 mm 3 mps 730 mmHg 92%
    07:00 0°C° 0.1 mm 3 mps 730 mmHg 92%
    08:00 -1°C° 0.1 mm 4 mps 730 mmHg 93%
    09:00 -1°C° 0 mm 4 mps 730 mmHg 89%
    10:00 -1°C° 0 mm 4 mps 730 mmHg 85%
    11:00 0°C° 0 mm 4 mps 730 mmHg 81%
    12:00 0°C° 0.1 mm 4 mps 730 mmHg 82%
    13:00 0°C° 0.1 mm 4 mps 730 mmHg 83%
    14:00 0°C° 0.1 mm 4 mps 730 mmHg 83%
    15:00 0°C° 0.1 mm 4 mps 731 mmHg 84%
    16:00 +1°C° 0.1 mm 3 mps 731 mmHg 85%
    17:00 0°C° 0.1 mm 3 mps 731 mmHg 86%
    18:00 0°C° 0 mm 3 mps 732 mmHg 85%
    19:00 0°C° 0 mm 3 mps 732 mmHg 85%
    20:00 0°C° 0 mm 3 mps 732 mmHg 85%
    21:00 0°C° 0 mm 3 mps 733 mmHg 86%
    22:00 -1°C° 0 mm 2 mps 733 mmHg 87%
    23:00 -1°C° 0 mm 2 mps 733 mmHg 89%

    27 February, Thursday

    Time Temperature Precipitation Wind Pressure Humidity
    00:00 -1°C° 0 mm 2 mps 733 mmHg 89%
    01:00 -1°C° 0 mm 3 mps 733 mmHg 89%
    02:00 -2°C° 0 mm 3 mps 733 mmHg 90%
    03:00 -2°C° 0 mm 2 mps 733 mmHg 92%
    04:00 -2°C° 0 mm 2 mps 732 mmHg 94%
    05:00 -2°C° 0 mm 2 mps 732 mmHg 96%
    06:00 -2°C° 0 mm 2 mps 732 mmHg 95%
    07:00 -1°C° 0 mm 2 mps 733 mmHg 94%
    08:00 -1°C° 0 mm 2 mps 733 mmHg 94%
    09:00 +1°C° 0 mm 2 mps 733 mmHg 92%
    10:00 +1°C° 0 mm 2 mps 733 mmHg 90%
    11:00 +2°C° 0 mm 2 mps 734 mmHg 89%
    12:00 +2°C° 0 mm 2 mps 734 mmHg 86%
    13:00 +1°C° 0 mm 3 mps 734 mmHg 84%
    14:00 +1°C° 0 mm 3 mps 734 mmHg 82%
    15:00 +1°C° 0 mm 3 mps 734 mmHg 83%
    16:00 +1°C° 0 mm 2 mps 734 mmHg 84%
    17:00 +1°C° 0 mm 2 mps 735 mmHg 85%
    18:00 +1°C° 0 mm 2 mps 735 mmHg 88%
    19:00 -1°C° 0 mm 2 mps 735 mmHg 91%
    20:00 -1°C° 0 mm 2 mps 735 mmHg 94%
    21:00 -1°C° 0 mm 2 mps 735 mmHg 93%
    22:00 -1°C° 0 mm 2 mps 735 mmHg 91%
    23:00 -1°C° 0 mm 2 mps 735 mmHg 90%
    Show more